| time (UTC) | temp F | wind direction | speed knots | gust knots | rain 1hr in | rain 24hr in | rain mn in | humidity % | barometer mb |
| 20260503023104 | 52 | 15 | 0.9 | 5.2 | 0.00 | 0.00 | 0.00 | 27 | 1019.5 |
| 20260503021104 | 53 | 8 | 2.6 | 5.2 | 0.00 | 0.00 | 0.00 | 28 | 1019.3 |
| 20260503020604 | 53 | 8 | 2.6 | 6.1 | 0.00 | 0.00 | 0.00 | 26 | 1019.2 |
| 20260503014604 | 55 | 10 | 1.7 | 2.6 | 0.00 | 0.00 | 0.00 | 24 | 1019.1 |
| 20260503014104 | 56 | 15 | 1.7 | 2.6 | 0.00 | 0.00 | 0.00 | 23 | 1019.1 |
| 20260503013603 | 56 | 15 | 0.9 | 1.7 | 0.00 | 0.00 | 0.00 | 23 | 1019.1 |
| 20260503013103 | 57 | 15 | 1.7 | 6.1 | 0.00 | 0.00 | 0.00 | 23 | 1019.1 |
| 20260503011603 | 58 | 11 | 2.6 | 7.0 | 0.00 | 0.00 | 0.00 | 17 | 1019.2 |
| 20260503011104 | 59 | 15 | 1.7 | 2.6 | 0.00 | 0.00 | 0.00 | 15 | 1019.1 |
| 20260503010104 | 59 | 14 | 0.9 | 5.2 | 0.00 | 0.00 | 0.00 | 16 | 1019.2 |
| 20260503004603 | 60 | 13 | 2.6 | 4.3 | 0.00 | 0.00 | 0.00 | 14 | 1019.2 |
| 20260503004104 | 60 | 12 | 1.7 | 7.8 | 0.00 | 0.00 | 0.00 | 15 | 1019.3 |
| 20260503003604 | 60 | 13 | 1.7 | 7.8 | 0.00 | 0.00 | 0.00 | 15 | 1019.3 |
| 20260503003104 | 61 | 14 | 3.5 | 8.7 | 0.00 | 0.00 | 0.00 | 15 | 1019.4 |
| 20260503001104 | 60 | 14 | 3.5 | 7.0 | 0.00 | 0.00 | 0.00 | 14 | 1019.6 |
| 20260503000604 | 61 | 14 | 2.6 | 7.0 | 0.00 | 0.00 | 0.00 | 15 | 1019.6 |
| 20260503000104 | 61 | 13 | 3.5 | 11.3 | 0.00 | 0.00 | 0.00 | 14 | 1019.7 |
| 20260502234604 | 62 | 14 | 3.5 | 8.7 | 0.00 | 0.00 | 0.00 | 16 | 1019.7 |
| 20260502234104 | 62 | 9 | 1.7 | 10.4 | 0.00 | 0.00 | 0.00 | 16 | 1019.7 |
| 20260502233604 | 62 | 14 | 5.2 | 12.2 | 0.00 | 0.00 | 0.00 | 15 | 1019.5 |
| 20260502233104 | 63 | 14 | 5.2 | 12.2 | 0.00 | 0.00 | 0.00 | 15 | 1019.5 |
| 20260502231603 | 63 | 14 | 2.6 | 8.7 | 0.00 | 0.00 | 0.00 | 16 | 1019.6 |
| 20260502231104 | 64 | 13 | 4.3 | 11.3 | 0.00 | 0.00 | 0.00 | 14 | 1019.7 |
| 20260502230604 | 64 | 13 | 5.2 | 10.4 | 0.00 | 0.00 | 0.00 | 15 | 1019.8 |
| 20260502230104 | 64 | 13 | 4.3 | 13.9 | 0.00 | 0.00 | 0.00 | 14 | 1020.0 |
| 20260502224604 | 63 | 13 | 5.2 | 13.0 | 0.00 | 0.00 | 0.00 | 15 | 1020.0 |
| 20260502223604 | 63 | 14 | 6.1 | 12.2 | 0.00 | 0.00 | 0.00 | 15 | 1020.2 |
| 20260502221605 | 64 | 14 | 6.1 | 13.0 | 0.00 | 0.00 | 0.00 | 14 | 1020.2 |
| 20260502221105 | 64 | 13 | 4.3 | 10.4 | 0.00 | 0.00 | 0.00 | 17 | 1020.3 |
| 20260502220606 | 64 | 12 | 4.3 | 12.2 | 0.00 | 0.00 | 0.00 | 17 | 1020.4 |
| 20260502214605 | 63 | 14 | 4.3 | 10.4 | 0.00 | 0.00 | 0.00 | 16 | 1020.8 |
| 20260502214104 | 64 | 14 | 3.5 | 8.7 | 0.00 | 0.00 | 0.00 | 16 | 1020.8 |
| 20260502213605 | 64 | 13 | 7.0 | 13.0 | 0.00 | 0.00 | 0.00 | 20 | 1021.0 |
| 20260502213105 | 63 | 14 | 7.0 | 15.6 | 0.00 | 0.00 | 0.00 | 20 | 1021.0 |
| 20260502211105 | 63 | 14 | 2.6 | 10.4 | 0.00 | 0.00 | 0.00 | 20 | 1021.3 |
| 20260502210626 | 63 | 14 | 5.2 | 11.3 | 0.00 | 0.00 | 0.00 | 20 | 1021.5 |
| 20260502210105 | 62 | 13 | 1.7 | 8.7 | 0.00 | 0.00 | 0.00 | 20 | 1021.6 |
| 20260502204604 | 63 | 14 | 6.1 | 10.4 | 0.00 | 0.00 | 0.00 | 20 | 1021.8 |
| 20260502204105 | 62 | 14 | 2.6 | 5.2 | 0.00 | 0.00 | 0.00 | 20 | 1021.9 |
| 20260502203105 | 62 | 14 | 4.3 | 10.4 | 0.00 | 0.00 | 0.00 | 20 | 1022.2 |
| 20260502201604 | 62 | 13 | 2.6 | 8.7 | 0.00 | 0.00 | 0.00 | 20 | 1022.5 |
| 20260502201105 | 61 | 14 | 4.3 | 8.7 | 0.00 | 0.00 | 0.00 | 20 | 1022.5 |
| 20260502200604 | 61 | 12 | 1.7 | 7.8 | 0.00 | 0.00 | 0.00 | 21 | 1022.6 |
| 20260502200105 | 61 | 14 | 2.6 | 13.0 | 0.00 | 0.00 | 0.00 | 19 | 1022.7 |
| 20260502194604 | 61 | 13 | 4.3 | 8.7 | 0.00 | 0.00 | 0.00 | 19 | 1022.7 |
| 20260502194104 | 61 | 14 | 6.1 | 11.3 | 0.00 | 0.00 | 0.00 | 19 | 1022.7 |
| 20260502193605 | 62 | 14 | 4.3 | 10.4 | 0.00 | 0.00 | 0.00 | 20 | 1022.8 |
| 20260502193105 | 62 | 14 | 4.3 | 15.6 | 0.00 | 0.00 | 0.00 | 22 | 1022.8 |
| 20260502191105 | 61 | 12 | 4.3 | 10.4 | 0.00 | 0.00 | 0.00 | 18 | 1023.0 |
| 20260502190605 | 62 | 14 | 3.5 | 13.0 | 0.00 | 0.00 | 0.00 | 20 | 1023.1 |
| 20260502190104 | 61 | 14 | 5.2 | 11.3 | 0.00 | 0.00 | 0.00 | 21 | 1023.2 |
| 20260502184605 | 61 | 13 | 2.6 | 13.0 | 0.00 | 0.00 | 0.00 | 20 | 1023.4 |
| 20260502184105 | 61 | 14 | 3.5 | 13.0 | 0.00 | 0.00 | 0.00 | 20 | 1023.4 |
| 20260502183605 | 60 | 14 | 1.7 | 7.0 | 0.00 | 0.00 | 0.00 | 20 | 1023.5 |
| 20260502183105 | 59 | 15 | 2.6 | 13.9 | 0.00 | 0.00 | 0.00 | 20 | 1023.6 |
| 20260502181605 | 59 | 13 | 4.3 | 7.8 | 0.00 | 0.00 | 0.00 | 21 | 1023.6 |
| 20260502180605 | 59 | 14 | 3.5 | 7.8 | 0.00 | 0.00 | 0.00 | 20 | 1023.8 |
| 20260502180105 | 59 | 11 | 4.3 | 13.0 | 0.00 | 0.00 | 0.00 | 21 | 1023.8 |
| 20260502170105 | 57 | 11 | 1.7 | 10.4 | 0.00 | 0.00 | 0.00 | 20 | 1024.5 |
| 20260502164104 | 56 | 13 | 1.7 | 6.1 | 0.00 | 0.00 | 0.00 | 20 | 1024.6 |
| 20260502163605 | 56 | 11 | 2.6 | 4.3 | 0.00 | 0.00 | 0.00 | 19 | 1024.5 |
| 20260502163105 | 55 | 9 | 2.6 | 6.1 | 0.00 | 0.00 | 0.00 | 20 | 1024.6 |
| 20260502161605 | 55 | 14 | 4.3 | 7.8 | 0.00 | 0.00 | 0.00 | 19 | 1024.7 |
| 20260502160604 | 55 | 13 | 3.5 | 6.1 | 0.00 | 0.00 | 0.00 | 20 | 1024.7 |
| 20260502160105 | 56 | 13 | 2.6 | 10.4 | 0.00 | 0.00 | 0.00 | 22 | 1024.8 |
| 20260502151605 | 50 | 12 | 1.7 | 5.2 | 0.00 | 0.00 | 0.00 | 29 | 1025.5 |
| 20260502151105 | 50 | 11 | 3.5 | 6.1 | 0.00 | 0.00 | 0.00 | 27 | 1025.5 |
| 20260502150604 | 49 | 10 | 4.3 | 5.2 | 0.00 | 0.00 | 0.00 | 28 | 1025.5 |
| 20260502150104 | 48 | 10 | 4.3 | 8.7 | 0.00 | 0.00 | 0.00 | 29 | 1025.5 |
| 20260502140105 | 40 | 10 | 4.3 | 8.7 | 0.00 | 0.00 | 0.00 | 43 | 1026.3 |
| 20260502130604 | 35 | 9 | 4.3 | 10.4 | 0.00 | 0.00 | 0.00 | 45 | 1026.3 |
| 20260502130105 | 35 | 10 | 7.0 | 11.3 | 0.00 | 0.00 | 0.00 | 44 | 1026.3 |
| 20260502123604 | 35 | 10 | 6.1 | 10.4 | 0.00 | 0.00 | 0.00 | 45 | 1026.0 |
| 20260502123104 | 35 | 10 | 6.1 | 13.0 | 0.00 | 0.00 | 0.00 | 44 | 1026.1 |
| 20260502121607 | 35 | 10 | 9.6 | 13.9 | 0.00 | 0.00 | 0.00 | 44 | 1026.0 |
| 20260502121105 | 35 | 11 | 6.1 | 10.4 | 0.00 | 0.00 | 0.00 | 45 | 1026.0 |
| 20260502120606 | 35 | 10 | 8.7 | 13.9 | 0.00 | 0.00 | 0.00 | 45 | 1025.9 |
| 20260502120105 | 35 | 10 | 8.7 | 13.9 | 0.00 | 0.00 | 0.00 | 44 | 1026.0 |
| 20260502114105 | 36 | 10 | 7.8 | 10.4 | 0.00 | 0.00 | 0.00 | 44 | 1025.9 |
| 20260502113604 | 36 | 10 | 7.8 | 13.0 | 0.00 | 0.00 | 0.00 | 44 | 1025.9 |
| 20260502113104 | 36 | 10 | 7.8 | 13.9 | 0.00 | 0.00 | 0.00 | 44 | 1025.9 |
| 20260502111604 | 36 | 10 | 10.4 | 15.6 | 0.00 | 0.00 | 0.00 | 44 | 1025.9 |
| 20260502110104 | 36 | 10 | 4.3 | 13.0 | 0.00 | 0.00 | 0.00 | 45 | 1026.0 |
| 20260502104605 | 36 | 10 | 6.1 | 13.0 | 0.00 | 0.00 | 0.00 | 45 | 1026.0 |
| 20260502104104 | 36 | 10 | 4.3 | 5.2 | 0.00 | 0.00 | 0.00 | 45 | 1025.9 |
| 20260502103605 | 36 | 9 | 5.2 | 8.7 | 0.00 | 0.00 | 0.00 | 45 | 1026.0 |
| 20260502101604 | 34 | 10 | 9.6 | 13.9 | 0.00 | 0.00 | 0.00 | 48 | 1026.0 |
| 20260502101105 | 34 | 10 | 10.4 | 14.8 | 0.00 | 0.00 | 0.00 | 49 | 1025.9 |
| 20260502100105 | 35 | 10 | 7.8 | 15.6 | 0.00 | 0.00 | 0.00 | 47 | 1025.7 |
| 20260502091104 | 37 | 10 | 8.7 | 13.0 | 0.00 | 0.00 | 0.00 | 44 | 1026.0 |
| 20260502090605 | 37 | 9 | 8.7 | 15.6 | 0.00 | 0.00 | 0.00 | 44 | 1026.1 |
| 20260502090104 | 38 | 11 | 7.0 | 13.0 | 0.00 | 0.00 | 0.00 | 43 | 1026.2 |
| 20260502080104 | 38 | 10 | 7.8 | 13.9 | 0.00 | 0.00 | 0.00 | 44 | 1026.5 |
| 20260502070604 | 37 | 10 | 5.2 | 10.4 | 0.00 | 0.00 | 0.00 | 43 | 1026.5 |
| 20260502070104 | 37 | 9 | 5.2 | 10.4 | 0.00 | 0.00 | 0.00 | 44 | 1026.6 |
| 20260502064605 | 37 | 9 | 5.2 | 12.2 | 0.00 | 0.00 | 0.00 | 45 | 1026.5 |
| 20260502064104 | 37 | 10 | 7.0 | 12.2 | 0.00 | 0.00 | 0.00 | 45 | 1026.3 |
| 20260502063104 | 38 | 10 | 7.8 | 13.0 | 0.00 | 0.00 | 0.00 | 42 | 1026.2 |
| 20260502061604 | 38 | 10 | 5.2 | 10.4 | 0.00 | 0.00 | 0.00 | 39 | 1026.2 |
| 20260502061106 | 38 | 9 | 7.8 | 10.4 | 0.00 | 0.00 | 0.00 | 41 | 1026.1 |
| 20260502060604 | 38 | 10 | 6.1 | 10.4 | 0.00 | 0.00 | 0.00 | 41 | 1026.1 |
| 20260502054604 | 38 | 10 | 7.8 | 13.0 | 0.00 | 0.00 | 0.00 | 40 | 1026.1 |
| 20260502054104 | 38 | 9 | 5.2 | 11.3 | 0.00 | 0.00 | 0.00 | 40 | 1026.0 |
| 20260502053604 | 38 | 10 | 6.1 | 12.2 | 0.00 | 0.00 | 0.00 | 40 | 1026.1 |
| 20260502053104 | 39 | 10 | 7.8 | 12.2 | 0.00 | 0.00 | 0.00 | 39 | 1026.0 |
| 20260502051605 | 41 | 10 | 8.7 | 13.9 | 0.00 | 0.00 | 0.00 | 34 | 1026.0 |
| 20260502051105 | 41 | 10 | 8.7 | 13.0 | 0.00 | 0.00 | 0.00 | 34 | 1026.0 |
| 20260502050104 | 41 | 10 | 6.1 | 10.4 | 0.00 | 0.00 | 0.00 | 34 | 1025.9 |
| 20260502044604 | 41 | 10 | 5.2 | 10.4 | 0.00 | 0.00 | 0.00 | 34 | 1025.9 |
| 20260502044104 | 41 | 9 | 6.1 | 10.4 | 0.00 | 0.00 | 0.00 | 34 | 1025.9 |
| 20260502043604 | 42 | 9 | 6.1 | 8.7 | 0.00 | 0.00 | 0.00 | 32 | 1025.9 |
| 20260502043104 | 42 | 9 | 4.3 | 8.7 | 0.00 | 0.00 | 0.00 | 32 | 1025.8 |
| 20260502041604 | 42 | 9 | 4.3 | 7.8 | 0.00 | 0.00 | 0.00 | 32 | 1025.8 |
| 20260502041104 | 42 | 9 | 3.5 | 6.1 | 0.00 | 0.00 | 0.00 | 32 | 1025.8 |
| 20260502040605 | 41 | 10 | 2.6 | 4.3 | 0.00 | 0.00 | 0.00 | 33 | 1025.7 |
| 20260502040104 | 41 | 11 | 0.9 | 2.6 | 0.00 | 0.00 | 0.00 | 36 | 1025.6 |
| 20260502034604 | 43 | 12 | 2.6 | 2.6 | 0.00 | 0.00 | 0.00 | 33 | 1025.4 |
| 20260502034104 | 43 | 15 | 0.0 | 1.7 | 0.00 | 0.00 | 0.00 | 30 | 1025.3 |
| 20260502033605 | 44 | 13 | 0.9 | 2.6 | 0.00 | 0.00 | 0.00 | 30 | 1025.2 |
| 20260502033104 | 44 | 14 | 2.6 | 2.6 | 0.00 | 0.00 | 0.00 | 28 | 1025.1 |
| 20260502031104 | 46 | 13 | 0.9 | 2.6 | 0.00 | 0.00 | 0.00 | 26 | 1024.9 |
| 20260502030604 | 47 | 13 | 1.7 | 2.6 | 0.00 | 0.00 | 0.00 | 25 | 1024.9 |
| 20260502030104 | 47 | 9 | 0.0 | 7.8 | 0.00 | 0.00 | 0.00 | 25 | 1024.8 |
| 20260502024604 | 48 | 9 | 5.2 | 10.4 | 0.00 | 0.00 | 0.00 | 24 | 1024.5 |
| 20260502024104 | 47 | 9 | 5.2 | 12.2 | 0.00 | 0.00 | 0.00 | 24 | 1024.4 |